Simultaneous Nadir Overpasses (SNOs) Predictions

Prediction of SNOs between METOP-B and TERRA Satellite Orbit:

Table of predicted SNOs for the next 14.0 days since TLE Epoch: 6/29/2020
Index Date (METOP-B) Time (METOP-B) Lat,Lon (METOP-B) SZA (METOP-B ) Date (TERRA) Time (TERRA) Lat,Lon (TERRA) SZA (TERRA ) Distance(km) Time Diff (sec)
1 06/30/2020 05:37:48 81.32, 142.66 60.98 06/30/2020 05:38:54 81.31, 142.79 61.03 2.22 66
2 06/30/2020 06:28:27 -81.33, -49.16 118.91 06/30/2020 06:28:20 -81.33, -49.29 118.93 2.21 7
3 07/03/2020 01:12:08 81.32,-150.44 61.23 07/03/2020 01:13:08 81.33,-150.43 61.27 0.74 60
4 07/03/2020 02:02:49 -81.32, 16.97 118.76 07/03/2020 02:02:35 -81.32, 17.14 118.75 2.88 14
5 07/05/2020 20:46:28 81.32, -83.94 61.49 07/05/2020 20:47:22 81.32, -84.08 61.50 2.31 54
6 07/05/2020 21:37:09 -81.32, 83.47 118.50 07/05/2020 21:36:49 -81.32, 83.52 118.51 0.81 20
7 07/08/2020 16:20:50 81.32, -17.84 61.74 07/08/2020 16:21:37 81.32, -17.77 61.77 1.22 47
8 07/08/2020 17:11:30 -81.33, 149.97 118.20 07/08/2020 17:11:04 -81.32, 149.85 118.23 2.25 26
9 07/11/2020 11:55:10 81.33, 49.04 62.15 07/11/2020 11:55:51 81.33, 48.87 62.15 2.80 41
